RYR27JN LIPQ-EGSS

Flight info

Callsign RYR27JN
Flight time N/A
Altitude 36000
Route RIFEN Y526 ELPEZ P125 URAVA DCT VEKEN DCT UMVEG DCT KPT L608 TEDGO DCT SUNEG L608 ULNOK DCT ADENU L608 LIRSU DCT SOGRI DCT NIK DCT KOZUF DCT IMPOH DCT SASKI L608 SUMUM Y6 TOSVA
Aircraft B738/M-SDE2E3FGHIRWXY/LB1

Departure

Time 2026-05-04 13:20
Airport Trieste Airport (LIPQ)

Arrival

Time N/A
Airport London Stansted Airport (EGSS)
Time Latitude Longitude Altitude Speed Heading
2026-05-04 12:42 45.82208 13.48543 46 ft 0 kts 171°
2026-05-04 13:11 45.82220 13.48540 46 ft 4 kts 170°
2026-05-04 13:11 45.82247 13.48535 42 ft 4 kts 180°
2026-05-04 13:11 45.82272 13.48542 42 ft 4 kts 203°
2026-05-04 13:12 45.82296 13.48557 46 ft 4 kts 215°
2026-05-04 13:12 45.82288 13.48541 42 ft 4 kts 238°
2026-05-04 13:12 45.82281 13.48505 46 ft 4 kts 260°
2026-05-04 13:12 45.82280 13.48498 46 ft 0 kts 260°
2026-05-04 13:15 45.82276 13.48461 46 ft 9 kts 260°
2026-05-04 13:15 45.82262 13.48341 45 ft 14 kts 260°
2026-05-04 13:15 45.82291 13.48220 46 ft 14 kts 319°
2026-05-04 13:16 45.82382 13.48108 46 ft 21 kts 319°
2026-05-04 13:16 45.82495 13.47969 46 ft 21 kts 320°
2026-05-04 13:16 45.82592 13.47817 46 ft 21 kts 296°
2026-05-04 13:16 45.82613 13.47614 46 ft 23 kts 270°
2026-05-04 13:17 45.82615 13.47360 46 ft 26 kts 270°
2026-05-04 13:17 45.82615 13.47109 46 ft 26 kts 270°
2026-05-04 13:17 45.82617 13.46830 46 ft 29 kts 271°
2026-05-04 13:17 45.82618 13.46552 46 ft 27 kts 270°
2026-05-04 13:18 45.82620 13.46291 46 ft 26 kts 270°
2026-05-04 13:18 45.82621 13.46010 46 ft 28 kts 270°
2026-05-04 13:18 45.82621 13.45739 46 ft 26 kts 270°
2026-05-04 13:18 45.82670 13.45582 47 ft 16 kts 354°
2026-05-04 13:19 45.82778 13.45560 47 ft 14 kts 349°
2026-05-04 13:19 45.82793 13.45601 47 ft 9 kts 91°
2026-05-04 13:19 45.82789 13.46076 45 ft 88 kts 90°
2026-05-04 13:19 45.82782 13.47317 49 ft 158 kts 91°
2026-05-04 13:20 45.82796 13.49048 551 ft 175 kts 94°
2026-05-04 13:20 45.82641 13.50729 1554 ft 167 kts 115°
2026-05-04 13:20 45.81920 13.52077 2071 ft 188 kts 149°
2026-05-04 13:20 45.80693 13.52568 3007 ft 175 kts 174°
2026-05-04 13:21 45.79500 13.52699 3836 ft 177 kts 192°
2026-05-04 13:21 45.78370 13.51909 4468 ft 185 kts 219°
2026-05-04 13:21 45.77545 13.50483 5150 ft 191 kts 246°
2026-05-04 13:21 45.77242 13.48654 5913 ft 190 kts 268°
2026-05-04 13:22 45.77608 13.46820 6367 ft 211 kts 302°
2026-05-04 13:22 45.78836 13.45401 6514 ft 247 kts 336°
2026-05-04 13:22 45.80601 13.44799 6838 ft 272 kts 350°
2026-05-04 13:22 45.82534 13.44463 7408 ft 286 kts 352°
2026-05-04 13:23 45.84526 13.44169 8230 ft 290 kts 352°
2026-05-04 13:23 45.86542 13.43851 9073 ft 293 kts 351°
2026-05-04 13:23 45.88568 13.43504 9963 ft 295 kts 350°
2026-05-04 13:23 45.90630 13.43129 10570 ft 306 kts 350°
2026-05-04 13:24 45.92832 13.42709 10760 ft 332 kts 350°
2026-05-04 13:24 45.95204 13.42247 10960 ft 355 kts 350°
2026-05-04 13:24 45.97698 13.41760 11450 ft 366 kts 351°
2026-05-04 13:25 46.02848 13.41699 12891 ft 378 kts
2026-05-04 13:25 46.05443 13.42441 13615 ft 382 kts 11°
2026-05-04 13:25 46.08052 13.43239 14322 ft 385 kts 11°
2026-05-04 13:25 46.10694 13.44042 14962 ft 390 kts 11°
2026-05-04 13:26 46.13360 13.44834 15624 ft 393 kts 11°
2026-05-04 13:26 46.16049 13.45616 16304 ft 396 kts 10°
2026-05-04 13:26 46.18771 13.46399 16911 ft 401 kts 10°
2026-05-04 13:26 46.21523 13.47188 17560 ft 404 kts 10°
2026-05-04 13:27 46.24289 13.47998 18248 ft 407 kts 10°
2026-05-04 13:27 46.27071 13.48834 18799 ft 411 kts 10°
2026-05-04 13:27 46.29876 13.49683 19394 ft 412 kts 11°
2026-05-04 13:27 46.32692 13.50534 19957 ft 415 kts 10°
2026-05-04 13:28 46.35532 13.51389 20482 ft 418 kts 10°
2026-05-04 13:28 46.38391 13.52204 21067 ft 419 kts
2026-05-04 13:28 46.41298 13.52135 21480 ft 420 kts 346°
2026-05-04 13:28 46.44039 13.50773 22034 ft 416 kts 330°
2026-05-04 13:29 46.46442 13.48461 22637 ft 414 kts 321°
2026-05-04 13:29 46.48748 13.45943 23167 ft 417 kts 322°
2026-05-04 13:29 46.51091 13.43429 23627 ft 420 kts 321°
2026-05-04 13:29 46.53464 13.40939 24054 ft 423 kts 322°
2026-05-04 13:30 46.55759 13.38249 24375 ft 425 kts 314°
2026-05-04 13:30 46.57734 13.35064 24788 ft 424 kts 304°
2026-05-04 13:30 46.59377 13.31519 25212 ft 424 kts 301°
2026-05-04 13:30 46.60971 13.27902 25567 ft 427 kts 300°
2026-05-04 13:31 46.62570 13.24240 25879 ft 431 kts 300°
2026-05-04 13:31 46.64181 13.20559 26285 ft 432 kts 301°
2026-05-04 13:31 46.65804 13.16865 26604 ft 435 kts 301°
2026-05-04 13:31 46.67450 13.13140 26951 ft 438 kts 301°
2026-05-04 13:32 46.69103 13.09408 27325 ft 439 kts 301°
2026-05-04 13:32 46.70763 13.05665 27703 ft 441 kts 301°
2026-05-04 13:32 46.72434 13.01891 27947 ft 445 kts 300°
2026-05-04 13:32 46.74116 12.98090 28244 ft 447 kts 301°
2026-05-04 13:33 46.75782 12.94325 28579 ft 448 kts 301°
2026-05-04 13:33 46.77498 12.90442 28885 ft 451 kts 301°
2026-05-04 13:33 46.79199 12.86585 29180 ft 453 kts 300°
2026-05-04 13:33 46.80906 12.82708 29511 ft 454 kts 300°
2026-05-04 13:34 46.82613 12.78829 29931 ft 453 kts 300°
2026-05-04 13:34 46.84310 12.74965 30372 ft 451 kts 300°
2026-05-04 13:34 46.85976 12.71168 30770 ft 450 kts 300°
2026-05-04 13:34 46.87663 12.67315 31052 ft 451 kts 300°
2026-05-04 13:35 46.89354 12.63447 31353 ft 452 kts 300°
2026-05-04 13:35 46.92727 12.55717 32026 ft 449 kts 300°
2026-05-04 13:35 46.94400 12.51875 32479 ft 446 kts 300°
2026-05-04 13:36 46.96058 12.48063 32864 ft 444 kts 300°
2026-05-04 13:36 46.97716 12.44242 33155 ft 444 kts 300°
2026-05-04 13:36 46.99373 12.40419 33438 ft 444 kts 300°
2026-05-04 13:36 47.01026 12.36601 33758 ft 444 kts 299°
2026-05-04 13:37 47.02675 12.32788 34091 ft 442 kts 298°
2026-05-04 13:37 47.04317 12.28984 34375 ft 441 kts 299°
2026-05-04 13:37 47.05958 12.25176 34579 ft 442 kts 299°
2026-05-04 13:37 47.07044 12.22656 34735 ft 441 kts 299°
2026-05-04 13:38 47.09345 12.17679 35085 ft 443 kts 307°
2026-05-04 13:38 47.11372 12.14276 35363 ft 443 kts 309°
2026-05-04 13:38 47.13451 12.10941 35612 ft 442 kts 309°
2026-05-04 13:38 47.15534 12.07635 35935 ft 440 kts 310°
2026-05-04 13:39 47.17613 12.04321 35970 ft 443 kts 310°
2026-05-04 13:39 47.21757 11.97622 35985 ft 441 kts 309°
2026-05-04 13:40 47.25839 11.90935 35978 ft 438 kts 309°
2026-05-04 13:40 47.29883 11.84262 35961 ft 435 kts 309°
2026-05-04 13:41 47.33904 11.77607 35959 ft 434 kts 309°
2026-05-04 13:41 47.37914 11.70955 35956 ft 434 kts 309°
2026-05-04 13:42 47.43941 11.60928 35960 ft 437 kts 309°
2026-05-04 13:42 47.47980 11.54187 35946 ft 439 kts 309°
2026-05-04 13:43 47.52034 11.47407 35955 ft 441 kts 309°
2026-05-04 13:43 47.56076 11.40629 35945 ft 442 kts 309°
2026-05-04 13:44 47.60167 11.33752 35944 ft 443 kts 308°
2026-05-04 13:44 47.64236 11.26894 35950 ft 443 kts 308°
2026-05-04 13:45 47.68301 11.20025 35957 ft 443 kts 308°
2026-05-04 13:45 47.72362 11.13144 35961 ft 443 kts 308°
2026-05-04 13:46 47.76412 11.06265 35954 ft 441 kts 308°
2026-05-04 13:46 47.80444 10.99400 35984 ft 440 kts 308°
2026-05-04 13:47 47.84461 10.92541 35990 ft 439 kts 308°
2026-05-04 13:47 47.87792 10.86841 36000 ft 439 kts 308°
2026-05-04 13:48 47.92450 10.78848 35990 ft 439 kts 308°
2026-05-04 13:48 47.96445 10.71975 35990 ft 438 kts 308°
2026-05-04 13:49 47.99779 10.66226 36000 ft 437 kts 308°
2026-05-04 13:49 48.03750 10.59362 35975 ft 436 kts 307°
2026-05-04 13:50 48.07715 10.52490 35980 ft 436 kts 307°
2026-05-04 13:50 48.11675 10.45608 35978 ft 436 kts 307°
2026-05-04 13:51 48.15629 10.38719 35982 ft 437 kts 307°
2026-05-04 13:51 48.19591 10.31800 35992 ft 437 kts 307°
2026-05-04 13:52 48.25507 10.21433 35979 ft 439 kts 307°
2026-05-04 13:53 48.29499 10.14415 35973 ft 440 kts 307°
2026-05-04 13:53 48.33471 10.07414 35972 ft 440 kts 307°
2026-05-04 13:54 48.39396 9.96937 35975 ft 441 kts 307°
2026-05-04 13:55 48.45367 9.86333 35971 ft 444 kts 306°
2026-05-04 13:55 48.51335 9.75699 35981 ft 442 kts 306°
2026-05-04 13:56 48.55294 9.68620 35975 ft 440 kts 306°
2026-05-04 13:57 48.61196 9.58029 35985 ft 438 kts 306°
2026-05-04 13:58 48.69036 9.43895 35982 ft 438 kts 306°
2026-05-04 13:58 48.74900 9.33275 35979 ft 438 kts 306°
2026-05-04 13:59 48.78795 9.26196 35961 ft 437 kts 306°
2026-05-04 14:00 48.84627 9.15563 35971 ft 437 kts 305°
2026-05-04 14:00 48.90442 9.04918 35979 ft 436 kts 305°
2026-05-04 14:01 48.94312 8.97809 35984 ft 437 kts 305°
2026-05-04 14:02 49.00130 8.87087 35984 ft 438 kts 305°
2026-05-04 14:02 49.04011 8.79910 35993 ft 439 kts 305°
2026-05-04 14:03 49.07868 8.72758 35986 ft 440 kts 305°
2026-05-04 14:03 49.11751 8.65539 35986 ft 440 kts 305°
2026-05-04 14:04 49.17601 8.54627 35985 ft 441 kts 304°
2026-05-04 14:04 49.21453 8.47417 36003 ft 441 kts 304°
2026-05-04 14:05 49.27299 8.36435 35979 ft 442 kts 304°
2026-05-04 14:06 49.31151 8.29176 35987 ft 441 kts 304°
2026-05-04 14:06 49.35011 8.21881 35991 ft 441 kts 304°
2026-05-04 14:07 49.38864 8.14578 35989 ft 440 kts 304°
2026-05-04 14:07 49.42705 8.07279 35993 ft 439 kts 304°
2026-05-04 14:08 49.46543 7.99962 35996 ft 439 kts 304°
2026-05-04 14:08 49.50374 7.92640 35997 ft 440 kts 304°
2026-05-04 14:09 49.55858 7.81327 35989 ft 439 kts 300°
2026-05-04 14:10 49.61141 7.69767 35982 ft 440 kts 300°
2026-05-04 14:10 49.64693 7.62062 35996 ft 441 kts 301°
2026-05-04 14:11 49.68257 7.54356 35997 ft 441 kts 301°
2026-05-04 14:11 49.73605 7.42766 36013 ft 442 kts 300°
2026-05-04 14:12 49.77167 7.35019 36000 ft 442 kts 300°
2026-05-04 14:13 49.82500 7.23375 36017 ft 442 kts 300°
2026-05-04 14:13 49.86045 7.15603 36015 ft 442 kts 300°
2026-05-04 14:14 49.89592 7.07804 36003 ft 442 kts 300°
2026-05-04 14:14 49.94904 6.96086 35997 ft 442 kts 300°
2026-05-04 14:15 50.01947 6.80470 36007 ft 441 kts 300°
2026-05-04 14:16 50.07207 6.68742 36000 ft 441 kts 300°
2026-05-04 14:17 50.12452 6.56999 35985 ft 440 kts 300°
2026-05-04 14:18 50.17658 6.45288 35980 ft 440 kts 300°
2026-05-04 14:19 50.24676 6.29419 35986 ft 444 kts 300°
2026-05-04 14:19 50.28182 6.21457 36004 ft 445 kts 299°
2026-05-04 14:20 50.31686 6.13476 35994 ft 445 kts 299°
2026-05-04 14:20 50.35186 6.05480 35986 ft 445 kts 299°
2026-05-04 14:21 50.40416 5.93484 35997 ft 444 kts 299°
2026-05-04 14:21 50.43887 5.85492 35992 ft 444 kts 299°
2026-05-04 14:22 50.47358 5.77477 35980 ft 443 kts 299°
2026-05-04 14:22 50.50791 5.69524 35985 ft 443 kts 299°
2026-05-04 14:23 50.55963 5.57497 36006 ft 443 kts 299°
2026-05-04 14:24 50.59404 5.49464 35986 ft 443 kts 299°
2026-05-04 14:24 50.62846 5.41406 35998 ft 444 kts 299°
2026-05-04 14:25 50.66286 5.33324 35993 ft 444 kts 299°
2026-05-04 14:25 50.71442 5.21169 35990 ft 445 kts 298°
2026-05-04 14:26 50.74873 5.13048 36007 ft 445 kts 299°
2026-05-04 14:26 50.78310 5.04887 35995 ft 447 kts 298°
2026-05-04 14:27 50.81748 4.96698 35984 ft 448 kts 298°
2026-05-04 14:27 50.85187 4.88481 35976 ft 448 kts 298°
2026-05-04 14:28 50.88627 4.80237 35982 ft 449 kts 298°
2026-05-04 14:28 50.92061 4.71980 35984 ft 449 kts 298°
2026-05-04 14:29 50.98914 4.55424 36000 ft 449 kts 298°
2026-05-04 14:30 51.02338 4.47112 35989 ft 450 kts 298°
2026-05-04 14:31 51.07460 4.34630 35997 ft 449 kts 298°
2026-05-04 14:32 51.13688 4.19369 35990 ft 449 kts 298°
2026-05-04 14:32 51.17630 4.09661 35983 ft 449 kts 298°
2026-05-04 14:33 51.20465 4.02659 35980 ft 449 kts 298°
2026-05-04 14:33 51.24390 3.92931 35972 ft 448 kts 298°
2026-05-04 14:34 51.27213 3.85913 35982 ft 448 kts 298°
2026-05-04 14:34 51.30573 3.77531 35990 ft 448 kts 298°
2026-05-04 14:35 51.33934 3.69127 35984 ft 449 kts 298°
2026-05-04 14:35 51.37092 3.60545 35982 ft 446 kts 293°
2026-05-04 14:36 51.39870 3.51664 35801 ft 449 kts 291°
2026-05-04 14:36 51.41245 3.47181 35548 ft 447 kts 291°
2026-05-04 14:36 51.42618 3.42736 35303 ft 444 kts 291°
2026-05-04 14:36 51.43991 3.38319 34746 ft 444 kts 291°
2026-05-04 14:37 51.45374 3.33894 34183 ft 444 kts 291°
2026-05-04 14:37 51.46760 3.29473 33634 ft 442 kts 291°
2026-05-04 14:37 51.48129 3.25092 33134 ft 438 kts 290°